This demonstration page uses our WeatherBlox Daily Observations layout. Learn more.

Left ArrowRight Arrow

44.89941, -97.11507

Hourly Observations for April 12, 2019

Temp ( °F °C ) Dew Point ( °F °C ) Humidity (%) Winds ( mph kmh ) Pressure ( in mb ) Visibility ( mi km ) Precip ( " mm )
12:00 am 00:00 Cloudy with Mist and Fog 25 -3.9 23 -5 92 92 NNE 26 43 29.50 999 1 2 0.00 0.00
12:28 am 00:28 Cloudy with Mist and Fog 25 -3.9 23 -5 92 92 NNE 25 41 29.50 999 1 2 0.00 0.00
12:40 am 00:40 Cloudy with Mist and Fog 25 -3.9 23 -5 92 92 N 25 41 29.50 999 2 3 0.00 0.00
12:53 am 00:53 Cloudy with Mist and Fog 25 -3.9 22 -5.6 88 88 N 24 39 29.45 997 2 2 0.00 0.00
1:07 am 01:07 Cloudy with Mist and Fog 24 -4.4 22 -5.6 91 91 N 25 41 29.50 999 1 2 0.00 0.00
1:20 am 01:20 Mostly Cloudy with Mist and Fog 24 -4.4 22 -5.6 91 91 N 25 41 29.50 999 1 2 0.00 0.00
1:53 am 01:53 Cloudy with Mist and Fog 24 -4.4 22 -5.6 91 91 N 23 37 29.45 997 1 2 0.00 0.00
2:06 am 02:06 Cloudy with Mist and Fog 24 -4.4 21 -6.1 88 88 N 24 39 29.50 999 1 2 0.00 0.00
2:26 am 02:26 Mostly Cloudy with Light Snow 24 -4.4 21 -6.1 88 88 N 25 41 29.49 999 1 2 0.00 0.03
2:41 am 02:41 Mostly Cloudy with Light Snow 24 -4.4 21 -6.1 88 88 N 26 43 29.49 999 1 2 0.00 0.03
2:53 am 02:53 Windy with Snow Likely 24 -4.4 21 -6.1 88 88 N 29 46 29.44 997 1 2 0.00 0.03
3:21 am 03:21 Mostly Cloudy with Light Snow 24 -4.4 21 -6.1 88 88 N 24 39 29.49 999 1 2 0.00 0.03
3:30 am 03:30 Windy with Snow Likely 24 -4.4 21 -6.1 88 88 N 25 41 29.49 999 1 2 0.00 0.03
3:46 am 03:46 Windy with Snow Likely 24 -4.4 21 -6.1 88 88 N 23 37 29.49 999 2 2 0.00 0.03
3:53 am 03:53 Windy with Snow Likely 24 -4.4 21 -6.1 88 88 N 24 39 29.44 997 2 2 0.00 0.03
4:03 am 04:03 Windy with Snow Likely 24 -4.4 21 -6.1 88 88 N 24 39 29.49 999 2 3 0.00 0.03
4:34 am 04:34 Windy with Snow Likely 23 -5 21 -6.1 92 92 N 24 39 29.50 999 2 3 0.00 0.03
4:53 am 04:53 Windy with Snow Likely 23 -5 21 -6.1 92 92 N 24 39 29.46 998 2 3 0.00 0.03
4:56 am 04:56 Windy with Snow Likely 23 -5 21 -6.1 92 92 N 26 43 29.50 999 2 3 0.00 0.03
5:17 am 05:17 Windy with Snow Likely 23 -5 20 -6.7 88 88 N 23 37 29.51 999 2 3 0.00 0.03
5:27 am 05:27 Windy with Snow Likely 23 -5 20 -6.7 88 88 N 22 35 29.51 999 2 3 0.00 0.03
5:42 am 05:42 Windy with Snow Likely 23 -5 20 -6.7 88 88 N 22 35 29.51 999 3 4 0.00 0.03
5:50 am 05:50 Windy with Snow Likely 23 -5 19 -7 86 86 N 22 35 29.51 999 5 8 0.00 0.03
5:53 am 05:53 Windy with Snow Likely 23 -5 20 -6.7 88 88 N 21 33 29.47 998 5 8 0.00 0.03
6:05 am 06:05 Windy with Snow Likely 23 -5 20 -6.7 88 88 N 22 35 29.52 1000 7 11 0.00 0.03
6:13 am 06:13 Windy with Snow Likely 23 -5 20 -6.7 88 88 N 22 35 29.52 1000 7 11 0.00 0.03
6:53 am 06:53 Windy with Snow Likely 23 -5 20 -6.7 88 88 N 22 35 29.49 999 4 6 0.00 0.03
7:07 am 07:07 Windy with Snow Likely 23 -5 20 -6.7 88 88 N 22 35 29.55 1001 3 5 0.00 0.03
7:17 am 07:17 Windy with Snow Likely 23 -5 21 -6.1 92 92 N 21 33 29.55 1001 2 3 0.00 0.03
7:25 am 07:25 Windy with Snow Likely 23 -5 21 -6.1 92 92 N 21 33 29.55 1001 1 2 0.00 0.03
7:40 am 07:40 Windy with Snow Likely 23 -5 21 -6.1 92 92 N 21 33 29.55 1001 1 1 0.00 0.03
7:53 am 07:53 Windy with Snow Likely 24 -4.4 21 -6.1 88 88 N 21 33 29.51 999 1 2 0.00 0.03
8:13 am 08:13 Windy with Snow Likely 24 -4.4 21 -6.1 88 88 N 20 31 29.56 1001 2 3 0.00 0.03
8:20 am 08:20 Windy with Snow Likely 24 -4.4 21 -6.1 88 88 NNW 20 31 29.57 1001 2 3 0.00 0.03
8:53 am 08:53 Windy with Snow Likely 25 -3.9 21 -6.1 85 85 NNW 21 33 29.53 1000 2 2 0.00 0.03
9:20 am 09:20 Windy with Snow Likely 25 -3.9 21 -6.1 85 85 NNW 21 33 29.58 1002 2 3 0.00 0.03
9:53 am 09:53 Cloudy with Light Snow 26 -3.3 22 -5.6 84 84 NNW 16 26 29.54 1001 2 3 0.00 0.03
10:00 am 10:00 Cloudy with Light Snow 26 -3.3 22 -5.6 84 84 NNW 17 28 29.58 1002 1 2 0.00 0.03
10:05 am 10:05 Cloudy with Light Snow 26 -3.3 22 -5.6 84 84 NW 16 26 29.58 1002 1 2 0.00 0.03
10:12 am 10:12 Cloudy with Light Snow 26 -3.3 22 -5.6 84 84 NW 16 26 29.59 1002 1 2 0.00 0.03
10:21 am 10:21 Cloudy with Light Snow 26 -3.3 22 -5.6 84 84 NW 18 30 29.59 1002 1 1 0.00 0.03
10:53 am 10:53 Cloudy with Light Snow 27 -2.8 22 -5.6 81 81 NW 18 30 29.57 1001 1 2 0.00 0.03
11:53 am 11:53 Cloudy with Light Snow 29 -1.7 24 -4.4 82 82 NW 17 28 29.59 1002 2 2 0.00 0.03
12:07 pm 12:07 Windy with Snow Likely 29 -1.7 24 -4.4 82 82 NW 20 31 29.62 1003 3 4 0.00 0.03
12:14 pm 12:14 Cloudy with Light Snow 30 -1.1 24 -4.4 79 79 NW 18 30 29.63 1003 5 8 0.01 0.25
12:41 pm 12:41 Windy with Snow Likely 29 -1.7 24 -4.4 82 82 NW 22 35 29.64 1004 3 5 0.01 0.25
12:48 pm 12:48 Cloudy with Light Snow 28 -2 25 -4 86 86 NW 17 28 29.64 1004 4 6 0.01 0.25
12:53 pm 12:53 Windy with Snow Likely 29 -1.7 24 -4.4 82 82 NW 21 33 29.62 1003 4 6 0.01 0.25
1:53 pm 13:53 Cloudy 30 -1.1 24 -4.4 79 79 NW 22 35 29.64 1004 10 16 0.00 0.03
2:49 pm 14:49 Cloudy 30 -1 25 -4 80 80 NW 21 33 29.70 1006 10 16 0.00 0.00
2:53 pm 14:53 Cloudy 30 -1.1 24 -4.4 79 79 NW 21 33 29.67 1005 10 16 0.00 0.00
3:04 pm 15:04 Cloudy 30 -1.1 24 -4.4 79 79 NW 21 33 29.71 1006 10 16 0.00 0.00
3:24 pm 15:24 Cloudy 30 -1.1 23 -5 75 75 NW 21 33 29.72 1006 9 14 0.00 0.03
3:40 pm 15:40 Cloudy 30 -1.1 23 -5 75 75 NW 20 31 29.72 1006 10 16 0.00 0.03
3:50 pm 15:50 Cloudy 30 -1 23 -5 75 75 NW 22 35 29.73 1007 10 16 0.00 0.03
3:53 pm 15:53 Cloudy 30 -1.1 23 -5 75 75 NW 21 33 29.70 1006 10 16 0.00 0.03
4:53 pm 16:53 Cloudy 30 -1.1 23 -5 75 75 WNW 20 31 29.73 1007 10 16 0.00 0.00
5:02 pm 17:02 Cloudy 30 -1.1 23 -5 75 75 WNW 22 35 29.76 1008 10 16 0.00 0.00
5:11 pm 17:11 Cloudy 30 -1.1 24 -4.4 79 79 NW 15 24 29.76 1008 10 16 0.00 0.00
5:53 pm 17:53 Cloudy 30 -1.1 23 -5 75 75 NW 18 30 29.76 1008 9 14 0.00 0.03
6:40 pm 18:40 Mostly Cloudy 30 -1.1 23 -5 75 75 WNW 17 28 29.81 1009 10 16 0.00 0.00
6:53 pm 18:53 Cloudy 30 -1.1 23 -5 75 75 WNW 14 22 29.79 1009 10 16 0.00 0.00
7:15 pm 19:15 Cloudy 29 -1.7 22 -5.6 75 75 WNW 16 26 29.82 1010 10 16 0.00 0.00
7:53 pm 19:53 Mostly Cloudy 29 -1.7 23 -5 78 78 WNW 12 19 29.81 1010 10 16 0.00 0.00
8:53 pm 20:53 Cloudy with Light Snow 29 -1.7 24 -4.4 82 82 W 10 17 29.83 1010 9 14 0.00 0.03
9:15 pm 21:15 Cloudy with Light Snow 28 -2.2 24 -4.4 85 85 WNW 10 17 29.86 1011 6 10 0.00 0.03
9:53 pm 21:53 Cloudy 28 -2.2 25 -3.9 88 88 WNW 8 13 29.85 1011 10 16 0.00 0.03
10:39 pm 22:39 Cloudy 29 -1.7 25 -3.9 85 85 W 14 22 29.89 1012 9 14 0.00 0.03
10:53 pm 22:53 Cloudy 28 -2.2 24 -4.4 85 85 WNW 12 19 29.87 1011 10 16 0.00 0.03
11:01 pm 23:01 Cloudy 28 -2.2 24 -4.4 85 85 WNW 10 17 29.89 1012 10 16 0.00 0.00
11:53 pm 23:53 Mostly Cloudy 28 -2.2 23 -5 81 81 WNW 14 22 29.88 1012 10 16 0.00 0.00

Powered by AerisWeather